Location: Brabourne
(51.1333°N, 1.0000°E)
Time: 11:35:13
(UTC+00:00)

ADEOS Rocket - Pass Details

Date: 23 October 2021
Orbit: 858 x 1307 km, 98.8° (Epoch: 26 November)

Event Time Altitude Azimuth Distance (km) Brightness Sun altitude
Exits shadow 00:49:45 21° 352° (N) 2,453 5.3 -47.8°
Drops below altitude 10° 00:51:44 10° 349° (NNW) 3,132 6.0 -47.7°
Sets 00:54:16 0° 347° (NNW) 4,043 6.7 -47.5°
